Location: Newark
(3.0500°N, 36.0167°E)
Time: 07:16:18
(UTC+00:00)

A-11 Canister half - Visible Passes

Search period start: 25 August 2019 00:00
Search period end: 04 September 2019 00:00
Orbit: 1526 x 1682 km, 47.3° (Epoch: 24 August)

Date Brightness Start Highest point End Pass type
(mag) Time Alt. Az. Time Alt. Az. Time Alt. Az.
25 Aug 9.6 16:07:18 10° NNW 16:16:27 39° NE 16:24:47 12° ESE visible
25 Aug 9.6 18:12:03 10° WNW 18:21:24 46° SW 18:23:08 43° SSW visible
26 Aug 9.8 15:45:47 10° NNW 15:54:47 37° NE 16:03:33 10° ESE visible
26 Aug 9.6 17:50:16 10° WNW 17:59:46 50° SW 18:03:28 35° S visible
27 Aug 9.6 17:28:30 10° NW 17:38:07 53° SW 17:43:51 26° SSE visible
28 Aug 9.5 17:06:45 10° NW 17:16:29 57° SW 17:24:17 17° SSE visible
29 Aug 9.5 16:45:00 10° NW 16:54:51 62° SW 17:04:27 10° SSE visible
30 Aug 9.5 16:23:16 10° NW 16:33:13 66° SW 16:42:54 10° SSE visible
30 Aug 11.2 18:36:47 10° WSW 18:38:31 11° SW 18:40:14 10° SW visible
31 Aug 10.2 03:12:20 10° SSW 03:21:04 43° SE 03:29:58 10° ENE visible
31 Aug 9.4 16:01:34 10° NW 16:11:34 71° SW 16:21:20 10° SSE visible
31 Aug 11.2 18:13:35 10° WSW 18:16:49 12° SW 18:20:02 10° SSW visible
01 Sep 10.2 02:50:53 10° SSW 02:59:27 40° SE 03:08:10 10° ENE visible
01 Sep 11.1 17:50:55 10° WSW 17:55:07 13° SW 17:59:17 10° SSW visible
02 Sep 10.2 02:29:26 10° SSW 02:37:50 37° SE 02:46:22 10° ENE visible
02 Sep 11.1 17:28:28 10° W 17:33:26 15° SW 17:38:21 10° SSW visible
03 Sep 10.3 02:08:00 10° SSW 02:16:13 34° SE 02:24:31 10° ENE visible
03 Sep 11.1 17:06:09 10° W 17:11:44 16° SW 17:17:16 10° SSW visible
